CELESTIS-02 1 25160U 98007D 13143.49535185 .00000063 00000-0 86670-4 0 1970 2 25160 107.9514 89.4332 0062685 27.2340 70.9391 14.21093356792468 CELESTIS-03 1 26034U 99070C 13144.51192469 .00006984 00000-0 79680-3 0 7785 2 26034 98.2301 230.4542 0017030 48.2309 312.0358 14.86333736723184 AMC-14 1 32708U 08011A 13143.49153140 .00000000 00000-0 10000-3 0 1265 2 32708 16.2088 87.9049 0052507 357.3446 2.5279 1.00275413 20308